Wind_Speed
27 27 28 28 29 29 30 30 29 28 30 31 32 33 34 33 34 34 35 35 36 36 36 37 38 37 37 36 35 35 35 34 34 35 34 34 35 35
26 26 27 27 28 28 28 29 29 29 28 30 32 33 34 34 35 34 35 35 35 36 37 36 36 37 37 38 38 37 36 36 36 35 35 35 35 35
26 26 26 26 26 26 26 27 27 27 28 29 30 31 33 34 34 35 35 35 36 35 35 36 36 36 37 38 38 37 37 36 36 35 35 36 36 35
25 25 25 25 25 25 25 25 26 26 27 28 29 31 32 33 32 33 34 34 34 35 35 36 36 37 37 36 37 37 37 37 36 36 35 35 36 36
23 23 24 24 25 24 24 24 24 25 25 25 26 29 30 31 32 32 32 32 33 34 34 35 35 36 37 37 38 37 37 36 36 36 35 35 35 35
21 21 22 23 23 23 23 23 23 24 24 24 24 26 28 30 30 30 31 32 32 33 33 34 34 34 36 36 36 37 36 36 36 37 36 35 35 35
19 20 20 21 22 23 23 22 22 22 23 23 24 24 26 27 28 29 30 30 31 32 32 32 33 33 33 33 33 34 35 36 36 36 36 35 35 36
19 19 19 20 20 21 21 22 22 22 23 23 23 24 24 25 27 28 29 30 30 31 31 32 32 32 32 32 33 33 34 34 35 35 36 36 36 36
19 19 19 20 20 20 20 20 21 21 22 22 23 23 24 24 26 26 27 28 29 29 31 32 32 32 32 32 33 32 32 33 34 35 36 36 35 35
19 20 20 20 20 20 19 19 19 20 21 21 21 21 22 23 24 25 25 26 27 28 29 29 30 31 31 31 32 31 31 31 31 32 33 34 34 34
19 20 20 20 20 20 20 19 19 18 18 19 19 19 19 20 21 22 22 23 25 26 26 27 28 29 30 30 31 31 31 30 30 31 31 31 32 32
19 19 19 19 19 20 19 19 18 17 17 17 17 17 18 18 20 20 21 22 23 24 25 25 26 27 28 29 30 31 30 31 30 30 30 30 31 32
18 18 18 18 18 17 16 16 16 16 16 16 16 16 17 18 18 19 19 21 22 23 24 25 25 26 26 27 28 29 30 30 30 30 30 31 31 31
17 17 17 17 16 15 15 15 15 16 16 17 17 17 17 18 18 18 19 20 21 22 23 24 25 25 25 26 27 27 27 28 29 29 29 29 30 31
16 17 17 16 16 15 15 15 15 15 16 16 16 17 17 17 18 19 19 19 20 22 22 24 24 25 25 25 26 26 27 28 29 29 29 29 29 30
18 17 16 15 16 16 16 16 15 14 14 15 15 15 16 16 17 17 18 19 19 20 21 21 23 24 24 24 25 25 26 26 27 28 28 28 28 29
17 18 17 16 16 17 17 16 15 15 15 15 16 16 16 16 16 17 17 18 19 19 20 21 21 22 23 24 24 24 25 25 26 27 27 27 27 27
18 18 18 17 16 16 17 16 16 16 16 16 16 17 16 16 17 17 17 17 18 19 20 21 21 22 22 23 23 24 24 24 25 25 26 25 26 27
19 19 19 18 17 17 17 17 17 17 17 17 17 17 17 16 17 17 18 18 19 19 19 19 20 21 21 22 22 23 24 24 25 25 26 26 26 26
20 20 20 20 19 19 19 18 18 17 18 18 18 18 18 18 18 18 19 18 18 19 19 19 20 21 21 21 21 23 24 24 24 25 25 26 26 26
21 21 21 21 20 21 20 20 19 18 18 19 19 19 19 19 19 19 19 18 19 19 19 20 21 22 22 22 23 23 24 25 25 25 25 25 26 26
22 23 22 22 22 21 20 20 21 20 19 20 20 21 21 20 21 20 20 19 19 19 20 21 22 23 23 23 24 25 25 26 26 26 26 26 26 26
24 24 24 24 23 22 22 22 22 22 22 22 22 22 22 21 22 22 21 21 21 21 21 21 21 22 22 23 24 25 26 26 26 27 27 27 28 27
Wind_Direction
281 280 278 276 277 275 273 271 269 268 264 262 260 259 256 254 254 253 253 251 250 249 247 246 247 248 248 247 248 250 251 252 251 250 250 250 249 249
282 281 279 277 277 275 273 272 271 270 267 264 261 258 255 253 253 254 254 252 252 251 249 248 247 247 247 246 248 249 250 251 251 251 252 252 252 252
283 282 279 278 277 275 274 273 273 271 269 265 263 259 255 253 253 253 253 253 251 251 250 248 248 247 247 246 247 248 248 249 250 251 251 252 252 252
285 283 279 276 277 276 276 275 274 273 271 266 263 259 256 254 254 254 254 253 251 251 250 248 248 247 247 247 247 247 247 247 249 250 251 252 252 251
287 285 281 278 277 277 276 276 276 275 273 269 266 262 259 256 254 255 255 253 252 251 251 249 249 248 248 248 248 248 248 247 248 249 250 252 253 252
291 288 285 283 282 280 278 277 277 276 275 273 269 264 260 257 256 256 256 254 253 252 251 250 250 250 249 250 250 249 247 247 248 249 250 251 252 253
295 294 291 289 287 283 282 280 280 278 276 275 272 267 262 258 256 257 257 256 255 252 251 251 251 251 251 251 250 250 249 248 248 249 250 251 252 253
298 299 297 295 293 290 287 286 284 281 277 276 274 270 265 259 257 258 257 256 255 252 252 252 252 251 251 251 250 250 250 249 249 249 250 252 253 254
298 299 298 298 297 294 290 288 285 282 281 279 277 272 267 262 260 259 258 257 256 255 254 254 252 252 251 250 251 251 251 250 250 250 251 251 252 253
304 301 300 301 300 297 293 289 287 284 283 282 281 277 271 264 262 260 258 259 259 258 256 253 252 251 250 251 250 249 251 250 250 252 252 253 253 253
310 307 304 301 300 299 296 293 289 286 283 283 281 279 275 270 264 261 261 261 261 258 256 254 252 251 251 251 251 251 252 250 250 251 251 252 252 252
314 311 309 306 303 302 297 293 291 287 288 287 284 281 276 273 270 265 263 261 260 258 256 254 253 253 251 251 251 251 251 250 251 252 252 252 252 253
317 314 311 310 307 307 305 300 295 292 290 288 285 283 280 278 276 270 266 263 261 259 257 255 254 253 252 251 250 250 251 250 251 253 253 252 252 253
323 320 317 317 315 313 312 310 302 296 295 294 291 288 286 284 281 276 271 265 261 260 258 256 255 254 253 252 251 251 251 251 251 252 252 252 253 253
331 329 325 322 320 315 311 311 307 301 298 298 295 291 288 286 284 281 275 271 267 262 260 258 256 255 253 251 252 252 252 252 251 252 253 253 254 254
330 330 327 324 322 320 317 313 308 305 303 302 301 297 291 289 286 283 280 275 270 265 263 261 258 255 253 252 253 253 253 252 250 251 251 251 252 253
334 332 329 326 322 320 318 319 314 309 306 304 303 301 295 291 288 286 283 279 273 268 265 262 260 257 255 255 255 255 255 253 251 251 252 252 252 252
336 335 332 328 325 324 322 318 314 311 310 307 306 304 299 293 288 285 284 280 275 271 268 264 261 258 256 255 254 254 255 255 254 253 253 252 252 252
337 336 334 331 326 324 323 320 316 313 312 310 308 305 301 296 293 289 286 283 277 273 270 266 261 259 257 254 254 254 256 256 255 254 254 255 256 255
336 335 333 331 327 325 323 320 318 316 314 312 309 305 302 298 294 291 289 285 280 274 270 268 266 263 260 257 256 257 257 257 257 256 256 257 258 258
333 332 330 328 326 325 324 320 316 314 312 311 309 306 302 298 296 293 289 285 282 278 273 270 268 265 262 259 258 258 259 259 259 259 259 258 257 257
332 331 330 329 327 324 322 320 316 311 308 308 306 303 299 297 295 293 290 286 283 280 276 273 269 266 264 261 260 259 259 260 260 259 259 259 259 257
331 331 330 330 328 325 321 318 315 311 308 305 303 301 299 296 293 291 288 286 282 279 277 275 272 270 268 266 263 261 260 259 259 259 259 259 258 259
Height
5723 5721 5720 5719 5718 5716 5716 5716 5716 5716 5717 5717 5717 5717 5719 5721 5722 5724 5726 5728 5730 5732 5735 5738 5741 5743 5746 5749 5751 5754 5756 5757 5759 5761 5763 5765 5767 5769
5715 5714 5712 5711 5710 5709 5708 5707 5707 5707 5707 5707 5707 5708 5710 5711 5713 5715 5717 5718 5720 5722 5725 5728 5731 5733 5736 5739 5742 5744 5747 5749 5751 5753 5755 5757 5759 5761
5708 5706 5705 5704 5702 5701 5700 5699 5699 5698 5699 5699 5698 5699 5700 5702 5703 5705 5707 5709 5711 5713 5715 5718 5721 5724 5726 5729 5732 5735 5737 5740 5742 5744 5746 5748 5750 5752
5701 5699 5698 5697 5695 5694 5693 5692 5691 5690 5690 5690 5690 5690 5691 5692 5694 5696 5698 5699 5701 5703 5706 5708 5711 5714 5717 5719 5722 5725 5728 5730 5733 5736 5738 5740 5742 5744
5695 5693 5691 5690 5688 5687 5686 5685 5684 5683 5682 5682 5682 5682 5682 5683 5685 5687 5689 5690 5692 5694 5696 5699 5701 5704 5707 5710 5712 5715 5718 5721 5724 5726 5729 5731 5733 5735
5689 5687 5685 5683 5681 5680 5679 5678 5677 5676 5675 5674 5674 5674 5674 5675 5677 5678 5680 5682 5683 5685 5687 5690 5692 5695 5698 5700 5703 5706 5709 5711 5714 5717 5719 5722 5724 5726
5683 5681 5679 5677 5675 5674 5673 5671 5670 5669 5668 5667 5667 5667 5667 5668 5669 5670 5672 5673 5675 5676 5679 5681 5683 5686 5688 5691 5693 5696 5699 5702 5705 5708 5710 5713 5715 5717
5678 5676 5674 5672 5670 5668 5667 5665 5664 5663 5662 5661 5661 5660 5660 5660 5661 5662 5663 5665 5667 5669 5670 5672 5674 5677 5679 5682 5685 5687 5690 5693 5696 5698 5701 5703 5705 5708
5674 5671 5669 5667 5665 5663 5661 5660 5658 5657 5656 5655 5654 5653 5653 5653 5654 5655 5656 5657 5658 5659 5661 5663 5666 5668 5671 5673 5676 5678 5681 5683 5686 5688 5691 5694 5696 5698
5669 5667 5665 5662 5660 5658 5656 5654 5653 5651 5650 5649 5648 5647 5646 5646 5647 5648 5648 5650 5651 5651 5653 5655 5657 5660 5662 5665 5667 5669 5672 5674 5677 5679 5681 5684 5686 5688
5665 5663 5660 5658 5656 5653 5651 5649 5647 5646 5645 5643 5642 5641 5641 5641 5641 5641 5642 5643 5643 5644 5646 5647 5649 5651 5654 5656 5659 5661 5663 5666 5668 5670 5672 5674 5676 5678
5661 5658 5656 5653 5651 5648 5646 5644 5643 5641 5640 5638 5637 5636 5636 5635 5635 5635 5635 5636 5636 5637 5638 5640 5642 5644 5646 5648 5650 5653 5655 5657 5659 5661 5663 5665 5667 5669
5657 5654 5651 5649 5646 5644 5641 5640 5638 5636 5635 5634 5633 5632 5630 5630 5629 5629 5629 5629 5630 5631 5632 5633 5635 5636 5638 5641 5643 5645 5646 5648 5650 5653 5655 5657 5658 5660
5653 5650 5647 5645 5642 5640 5637 5635 5634 5632 5631 5629 5628 5627 5626 5625 5624 5623 5623 5623 5623 5624 5625 5626 5628 5629 5631 5633 5635 5637 5638 5640 5642 5644 5646 5648 5650 5651
5650 5647 5644 5641 5638 5636 5634 5631 5630 5628 5626 5625 5623 5622 5621 5620 5619 5618 5617 5617 5617 5617 5618 5619 5620 5622 5623 5625 5627 5628 5630 5632 5634 5636 5637 5639 5641 5643
5648 5644 5641 5638 5635 5633 5630 5628 5626 5624 5622 5621 5619 5617 5616 5614 5613 5613 5612 5611 5611 5611 5611 5612 5613 5614 5616 5617 5619 5620 5622 5624 5626 5627 5629 5631 5633 5634
5645 5642 5638 5635 5633 5630 5627 5624 5622 5620 5618 5617 5615 5613 5611 5610 5608 5607 5607 5606 5605 5605 5605 5605 5606 5607 5608 5610 5611 5612 5614 5615 5617 5619 5621 5623 5624 5626
5642 5639 5635 5632 5629 5626 5624 5621 5619 5616 5614 5612 5610 5608 5606 5605 5603 5602 5601 5600 5599 5599 5598 5598 5599 5600 5602 5603 5604 5605 5606 5607 5609 5611 5612 5614 5616 5617
5640 5636 5633 5629 5626 5623 5620 5618 5615 5612 5610 5608 5605 5603 5601 5600 5598 5596 5595 5594 5593 5592 5592 5592 5592 5593 5594 5596 5597 5598 5599 5600 5601 5603 5604 5606 5608 5609
5637 5633 5630 5626 5623 5619 5616 5614 5611 5608 5606 5603 5601 5599 5596 5595 5593 5591 5589 5588 5587 5586 5585 5585 5585 5586 5587 5589 5589 5590 5591 5592 5593 5595 5596 5598 5599 5600
5634 5630 5626 5622 5619 5615 5612 5609 5606 5603 5601 5598 5596 5594 5591 5589 5587 5585 5583 5582 5581 5580 5579 5579 5578 5579 5579 5581 5582 5583 5583 5584 5585 5586 5588 5589 5591 5592
5630 5627 5622 5618 5615 5611 5608 5604 5601 5598 5595 5592 5590 5588 5585 5583 5581 5579 5577 5576 5574 5573 5572 5572 5571 5571 5572 5572 5573 5574 5575 5576 5577 5578 5579 5581 5581 5583
5627 5623 5618 5614 5610 5606 5603 5599 5596 5592 5589 5586 5584 5581 5578 5576 5574 5572 5570 5568 5567 5566 5565 5565 5564 5564 5564 5564 5565 5565 5566 5567 5568 5569 5571 5571 5572 5573